TIANMU-1 09

Last updated on Thu Oct 30 2025 00:02:23 GMT+0000 (Coordinated Universal Time)

1 57401U 23101C 25302.46471041 .00009689 00000+0 36669-3 0 9997 2 57401 97.2887 352.6482 0004044 223.7868 136.3051 15.27130319126390
UTC large
Height (km)
Speed (km/s)
/
Latitude / Longitude
Inclination (degrees)
Orbital Period (minutes)
Azimuth
Elevation
Range (km)
Doppler Factor

Next 0 passes for location: London (51.5072 / 0.1276)

Sorry there are no passes over London.